Tracking 23610 objects as of 20-Sep-2021
HD Live streaming from Space Station
objects crossing your sky now

STARLINK-2752

Track STARLINK-2752 now!
10-day predictions
STARLINK-2752 is classified as:


NORAD ID: 48692
Int'l Code: 2021-044BG
Perigee: 379.6 km
Apogee: 381.3 km
Inclination: 53.0 °
Period: 92.0 minutes
Semi major axis: 6751 km
RCS: Unknown
Launch date: May 26, 2021
Source: United States (US)
Launch site: AIR FORCE EASTERN TEST RANGE (AFETR)
aabbcc
Your satellite tracking list
Your tracking list is empty




NASA's NSSDC Master Catalog

Two Line Element Set (TLE):
1 48692U 21044BG  21262.91667824 -.00960511  00000-0 -10599-1 0  9995
2 48692  53.0451 207.6617 0001259  81.2081 157.7107 15.64988949  3683
Source of the keplerian elements: AFSPC